Home > Weather > Mechernich > Past weeks

Flag for Germany Weather for the Past 2 Weeks in Mechernich, North Rhine-Westphalia, Germany

Now
48 °F

Partly sunny.


Feels Like: 46 °F
Forecast: 38 / 45 °F
Wind: 6 mph from West

Location: Noervenich

Current Time: Apr 29, 2016 at 7:03:08 PM

Latest Report: Apr 29, 2016 at 6:20 PM


Visibility: N/A

Pressure: 29.98 "Hg

Humidity: 82%

Dew Point: 43 °F

Location of MechernichLocation

Historic Weather in Mechernich — Graph

°F

Mechernich Temperature Yesterday

Maximum temperature yesterday: 50 °F (at 4:20 PM)
Minimum temperature yesterday: 36 °F (at 4:20 AM)
Average temperature yesterday: 42 °F

High & Low Weather Summary for the Past Weeks

 TemperatureHumidityPressure
High68 °F (Apr 21, 4:20 PM)94% (Apr 15, 4:20 AM)30.48 "Hg (Apr 15, 4:20 AM)
Low32 °F (Apr 18, 6:20 AM)26% (Apr 21, 4:20 PM)29.53 "Hg (Apr 16, 2:20 AM)
Average46 °F69%29.93 "Hg
* Reported Apr 14 5:20 PM — Apr 29 5:20 PM, Mechernich, Weather by CustomWeather, © 2016

Note: Actual official high and low records may vary slightly from our data, if they occured in-between our weather recording intervals... More about our weather records

Advertising

Mechernich Weather History for the Previous 24 Hours

Scroll right to see more
 ConditionsComfort  
Time TempWeatherWind HumidityBarometerVisibility
5:20 PM
Fri, Apr 29
55 °FBroken clouds.10 mph44%29.95 "HgN/A
4:20 PM55 °FPartly sunny.12 mph44%29.95 "HgN/A
3:20 PM55 °FPartly sunny.9 mph44%29.95 "HgN/A
2:20 PM54 °FPartly sunny.12 mph44%29.95 "HgN/A
1:20 PM55 °FPartly sunny.13 mph44%29.95 "HgN/A
12:20 PM54 °FBroken clouds.13 mph47%29.95 "HgN/A
11:20 AM52 °FBroken clouds.12 mph50%29.95 "HgN/A
10:20 AM50 °FBroken clouds.12 mph54%29.95 "HgN/A
9:20 AM50 °FScattered clouds.6 mph58%29.95 "HgN/A
8:20 AM43 °FPassing clouds.5 mph71%29.95 "HgN/A
7:20 AM39 °FPassing clouds.6 mph75%29.95 "HgN/A
6:20 AM39 °FPassing clouds.7 mph75%29.95 "HgN/A
5:20 AM37 °FPassing clouds.8 mph75%29.95 "HgN/A
4:20 AM39 °FPassing clouds.8 mph75%29.95 "HgN/A
3:20 AM39 °FPassing clouds.7 mph75%29.98 "HgN/A
2:20 AM39 °FPassing clouds.8 mph75%29.98 "HgN/A
1:20 AM37 °FPassing clouds.7 mph81%29.98 "HgN/A
12:20 AM37 °FPassing clouds.6 mph87%29.98 "HgN/A
11:20 PM
Thu, Apr 28
39 °FPassing clouds.3 mph87%29.98 "HgN/A
10:20 PM39 °FPassing clouds.2 mph87%30.01 "HgN/A
9:20 PM43 °FScattered clouds.2 mph76%30.01 "HgN/A
8:20 PM45 °FPartly sunny.5 mph71%29.98 "HgN/A
7:20 PM48 °FPartly sunny.3 mph62%29.98 "HgN/A
Weather by CustomWeather, © 2016

See weather overviewHow to use our weather pages